{"data":{"norad_id":68067,"intl_designator":"2026-041AD","name":"STARLINK-36929","alt_names":[],"object_type":"PAYLOAD","status":"ACTIVE","operator":null,"country":"US","launch_date":"2026-03-02","launch_site_code":"AFETR","launch_vehicle":null,"mission":null,"orbit_class":"UNKNOWN","rcs_meters":null,"size_class":null,"mass_kg":null,"dimensions":null,"purposes":["comms"],"wikipedia_slug":null,"has_3d_model":false,"image_url":null,"decayed_at":null,"tle_current":{"epoch":"2026-09-19T15:11:00.439008Z","epoch_age_seconds":130475,"freshness":"FRESH","line1":"1 68067U 26041AD  26262.63264397  .00012783  00000+0  38881-3 0  9999","line2":"2 68067  53.1591 223.9435 0001104  78.0969 282.0158 15.34400513 31158","mean_motion":15.34400513,"eccentricity":0.0001104,"inclination_deg":53.1591,"raan_deg":223.9435,"arg_perigee_deg":78.0969,"mean_anomaly_deg":282.0158,"bstar":0.00038881,"rev_number":3115,"period_min":93.847726704977,"perigee_km":461.94648686923,"apogee_km":463.45694405761,"semimajor_km":6840.8387154634,"source":"CELESTRAK","updated_at":"2026-09-20T09:00:43.752539Z"}}}